Tracking 24120 objects as of 5-Dec-2021
HD Live streaming from Space Station
objects crossing your sky now

THORAD AGENA D DEB

Track THORAD AGENA D DEB now!
10-day predictions


NORAD ID: 4171
Int'l Code: 1969-082AP
Perigee: 762.6 km
Apogee: 823.5 km
Inclination: 70.1 °
Period: 100.6 minutes
Semi major axis: 7164 km
RCS: 0.0461 m2 (small)
Launch date: September 30, 1969
Source: United States (US)
Launch site: AIR FORCE WESTERN TEST RANGE (AFWTR)

Note: This is SATELLITE DEBRIS
aabbcc
Your satellite tracking list
Your tracking list is empty




NASA's NSSDC Master Catalog

Two Line Element Set (TLE):
1 04171U 69082AP  21338.47531959  .00000388  00000-0  16529-3 0  9993
2 04171  70.0777 331.1000 0042501 276.6625  82.9663 14.31749358701767
Source of the keplerian elements: AFSPC